Wind_Speed
24 12 28 30 24 19 20 22 28 21 13 15 18 18 13 21 23 27 27 29 33 36 31 28 20 13 13 19 23 30 32 29 29 24 20 16 12 10 11 12 14 12 11 11
13 29 26 22 23 22 23 24 21 14 10 12 16 20 15 18 26 29 26 28 28 25 26 18 15 12 13 15 24 31 31 31 25 19 15 12 10 10 10 11 11 9 9 11
28 39 18 20 22 24 26 26 24 20 15 15 16 23 20 20 13 21 24 28 31 27 20 12 13 11 14 18 25 32 31 25 20 17 14 10 9 8 8 8 8 7 8 8
23 23 25 26 29 22 26 24 20 19 11 15 3 16 18 20 22 21 28 23 23 17 18 12 11 10 14 21 27 30 27 22 18 15 12 9 6 4 5 6 6 7 5 4
19 21 21 26 24 26 17 13 16 17 17 17 17 11 10 13 21 24 20 24 15 10 9 10 9 10 14 21 31 27 23 19 16 13 11 6 3 3 4 5 5 6 4 2
19 13 26 28 19 21 13 8 10 6 7 12 15 11 13 15 19 16 13 12 4 8 5 8 10 13 19 28 30 26 21 18 15 13 10 5 1 2 4 5 7 6 5 4
17 19 6 15 17 17 20 14 6 7 7 9 14 12 18 15 19 18 18 8 5 6 6 14 19 23 31 34 29 24 20 18 14 12 10 4 0 2 4 6 7 4 4 7
14 12 21 20 18 14 25 20 8 7 6 9 5 9 7 17 19 29 22 13 6 8 12 15 20 28 34 32 27 23 20 16 13 12 9 5 2 3 4 6 3 2 7 9
12 14 14 22 14 21 19 19 15 5 1 5 4 6 10 17 14 11 11 7 9 12 15 19 23 31 32 29 25 22 20 14 13 13 9 6 3 4 5 5 3 6 10 12
7 11 13 20 22 24 18 19 10 9 9 9 6 5 8 6 9 8 8 9 11 15 18 21 28 31 29 25 23 21 16 13 14 12 9 6 2 3 4 4 4 7 10 12
10 7 14 18 21 22 11 18 7 10 6 5 3 5 9 14 8 7 2 10 14 16 19 22 27 29 27 24 23 21 16 14 15 12 10 6 2 2 2 2 3 7 10 11
7 6 6 24 13 18 20 21 19 9 10 10 2 5 1 8 7 7 2 10 16 17 20 23 25 29 27 25 24 19 17 15 14 12 9 7 3 1 1 1 4 7 10 11
8 5 10 8 7 15 25 21 17 6 5 16 10 4 3 4 4 1 4 13 18 20 22 24 26 29 27 26 24 19 17 16 13 11 9 6 3 1 0 2 5 8 11 10
10 4 11 11 9 2 25 24 20 15 9 9 17 12 19 14 6 6 5 12 18 22 25 26 27 27 26 26 23 19 18 16 13 10 9 6 3 1 0 6 8 10 11 11
6 3 6 15 11 8 15 20 24 22 17 11 7 22 19 14 10 4 8 13 17 23 25 27 28 26 27 27 23 20 18 16 14 12 11 7 4 2 5 9 10 12 14 12
6 2 8 9 14 11 8 6 15 25 23 21 16 18 13 15 12 3 10 19 21 23 25 26 28 28 28 28 25 22 21 18 15 13 12 8 5 7 12 12 13 14 13 13
1 4 4 5 5 6 10 14 9 12 20 20 21 26 15 16 14 9 13 23 26 26 28 32 32 32 30 29 26 23 23 19 17 15 13 11 8 13 15 14 13 12 12 12
4 2 3 3 4 14 4 9 3 12 9 10 11 10 11 12 23 22 17 25 28 25 27 30 32 33 29 28 26 23 24 21 18 17 16 16 12 15 15 14 11 10 9 9
11 2 3 2 5 5 4 10 6 1 5 11 9 11 14 17 19 18 12 21 26 34 30 33 34 33 30 30 28 25 25 23 21 19 19 20 16 15 16 14 12 9 9 9
1 8 4 3 4 5 7 13 7 4 5 13 12 11 13 16 10 2 16 9 12 20 29 31 33 34 30 31 30 28 27 27 23 21 20 22 19 16 15 12 10 9 9 9
2 3 8 4 1 3 14 14 15 8 4 16 16 16 14 9 12 29 26 16 9 20 23 30 34 37 33 33 32 31 28 29 26 22 21 21 21 17 15 13 11 8 8 9
1 1 3 3 3 5 18 3 4 5 10 14 16 17 18 19 23 23 21 18 8 21 28 32 35 38 33 33 34 33 31 28 27 23 22 21 22 19 18 15 13 11 8 9
1 3 1 4 3 7 9 4 9 10 12 15 16 20 19 20 21 20 20 16 9 19 28 31 37 39 36 34 34 34 31 30 29 26 24 22 21 21 21 17 17 15 11 9
1 3 1 2 5 10 5 8 13 15 16 17 18 19 20 20 21 20 17 13 10 20 29 34 34 42 41 36 33 31 31 30 31 28 26 24 22 23 22 20 17 16 14 13
3 3 5 2 8 9 3 16 20 22 20 22 21 20 20 22 21 21 18 14 10 18 27 35 40 44 44 39 34 33 32 33 33 30 27 26 25 23 24 23 21 18 16 12
6 4 3 2 9 9 16 19 23 22 24 24 23 26 23 23 24 24 18 14 11 19 25 34 38 39 43 43 37 34 33 34 34 33 31 29 29 27 26 25 23 21 19 15
Wind_Direction
188 200 221 212 217 239 248 251 249 252 232 243 256 275 283 295 292 285 287 287 282 285 296 298 295 286 259 242 225 211 205 198 195 203 216 221 229 250 269 280 291 287 272 266
183 222 219 221 217 224 231 245 246 251 252 262 279 278 287 285 279 281 281 287 281 288 294 295 289 274 247 231 211 201 195 192 194 207 211 213 227 256 272 285 292 286 274 274
198 226 205 210 213 215 225 233 238 246 267 271 283 281 278 277 274 280 283 279 283 278 289 295 282 254 227 211 202 188 183 184 194 199 201 208 233 264 291 289 300 292 286 286
226 220 197 206 219 207 232 225 247 250 254 262 318 288 279 283 284 281 283 278 273 274 282 273 272 240 213 200 184 176 175 184 188 191 192 203 234 269 294 299 302 299 300 303
215 195 197 203 203 206 239 226 225 236 245 272 258 266 280 286 281 275 274 270 281 307 278 253 234 209 195 183 174 171 177 181 180 184 183 196 257 277 307 314 313 296 286 260
221 209 196 213 199 200 194 201 206 223 247 252 258 248 278 268 257 274 265 256 310 325 268 203 181 168 165 167 168 173 177 174 178 180 183 182 307 292 326 319 311 293 259 226
214 224 199 192 185 192 196 185 207 224 217 249 243 234 246 261 250 259 262 280 311 293 192 163 159 158 159 165 170 174 173 173 176 180 176 167 351 5 340 321 318 282 242 182
209 196 207 191 197 180 190 187 177 205 217 250 148 217 253 245 260 244 251 273 245 192 167 156 160 158 161 167 173 172 171 171 174 173 167 162 84 18 352 337 319 188 161 157
209 225 183 186 187 180 183 202 203 254 283 277 171 261 278 247 246 235 239 225 186 171 162 160 162 162 166 172 173 172 169 170 171 167 163 156 99 38 17 22 62 135 151 152
280 224 198 185 183 201 201 187 185 206 221 236 238 280 257 313 243 205 193 194 175 163 158 163 165 168 171 171 171 169 168 169 166 163 162 161 140 32 21 32 78 133 152 156
274 277 174 167 201 187 178 187 187 190 215 207 279 246 213 252 263 270 346 156 162 160 160 166 169 170 170 171 170 166 166 166 164 162 161 152 191 12 16 25 106 133 153 161
304 298 250 207 195 196 199 187 183 185 193 220 271 256 240 246 294 309 249 144 148 163 162 167 170 169 172 171 171 168 166 164 166 164 170 173 215 288 359 5 160 150 157 164
340 238 224 157 200 204 200 199 190 172 161 198 198 233 206 280 235 41 120 143 153 165 162 169 171 172 174 174 173 170 168 167 168 172 174 179 197 188 330 181 156 147 160 162
320 267 254 211 201 67 201 197 196 201 203 194 215 223 264 275 333 49 119 153 166 171 167 170 171 175 177 176 175 172 171 172 174 175 170 178 153 122 33 163 145 143 151 150
357 269 293 268 274 300 174 200 204 207 216 221 205 227 240 265 304 10 155 164 177 169 170 173 174 178 178 176 175 172 173 174 172 167 166 160 131 92 139 142 140 136 136 137
341 8 340 257 256 256 255 198 214 209 221 237 250 257 240 282 304 231 181 175 191 177 173 175 179 182 179 178 176 174 173 172 169 167 168 156 128 115 131 128 134 136 132 132
285 339 331 209 313 253 244 237 212 210 224 221 225 241 260 267 277 275 196 187 198 182 177 181 184 184 183 182 178 175 175 174 174 172 170 159 139 131 129 132 134 133 132 134
269 297 248 249 220 214 116 38 309 214 56 5 285 287 329 318 298 295 252 212 196 187 180 183 185 187 185 183 179 176 177 176 178 177 173 163 147 140 132 123 120 128 142 141
228 255 255 234 201 105 47 17 343 49 74 18 344 332 322 317 308 271 257 217 215 193 195 190 188 187 184 184 178 179 179 181 182 185 178 173 164 146 141 128 111 116 133 146
132 210 251 205 220 190 9 333 301 179 140 4 353 340 330 331 253 220 1 341 234 224 191 188 187 187 185 183 181 182 182 184 186 188 184 180 177 174 167 151 132 110 128 136
194 113 188 208 102 87 352 347 153 187 37 341 347 334 326 308 291 302 313 313 265 217 197 188 188 186 184 182 182 185 187 189 185 188 193 189 189 184 182 174 162 141 131 131
0 279 175 203 162 136 359 20 75 353 339 336 338 334 323 312 305 305 301 293 270 205 199 194 188 186 185 185 186 188 192 187 185 188 196 195 192 189 184 179 177 172 151 150
61 357 16 6 49 355 350 29 37 2 337 340 335 334 330 322 319 313 303 289 262 205 201 198 188 186 187 189 191 192 190 187 185 188 194 198 196 195 193 187 189 185 178 169
15 331 25 318 354 338 11 45 8 359 350 343 341 334 338 327 328 319 310 293 252 204 199 200 192 189 189 190 194 197 187 186 188 190 194 198 201 199 198 198 195 199 193 187
356 315 350 352 348 341 28 3 349 344 350 346 341 341 341 337 332 328 313 299 257 211 201 200 197 196 192 190 192 196 190 188 190 193 197 201 203 201 203 204 206 206 207 203
349 4 4 19 301 289 301 326 332 336 338 345 339 338 340 348 339 337 320 302 266 213 203 203 202 203 197 195 195 198 192 193 192 194 197 202 204 204 206 208 209 215 215 212
Height
1461 1467 1445 1448 1457 1458 1460 1461 1457 1455 1459 1465 1455 1456 1456 1451 1450 1448 1442 1439 1435 1430 1427 1425 1423 1424 1425 1429 1434 1440 1447 1455 1459 1464 1469 1472 1475 1476 1476 1474 1473 1470 1470 1469
1456 1436 1430 1448 1454 1459 1461 1461 1458 1459 1459 1462 1456 1452 1449 1448 1443 1440 1436 1431 1427 1423 1422 1419 1420 1421 1422 1426 1431 1436 1444 1450 1457 1463 1466 1469 1472 1474 1473 1471 1469 1467 1467 1466
1420 1388 1436 1445 1447 1454 1453 1454 1456 1459 1455 1456 1456 1449 1442 1437 1436 1433 1428 1427 1420 1418 1416 1415 1416 1417 1422 1424 1429 1435 1442 1451 1456 1461 1464 1467 1470 1471 1470 1468 1466 1465 1464 1463
1421 1419 1424 1433 1436 1445 1446 1446 1454 1457 1464 1460 1451 1452 1439 1434 1428 1421 1418 1419 1413 1413 1411 1410 1412 1415 1420 1425 1431 1438 1444 1450 1455 1459 1462 1466 1468 1468 1466 1465 1464 1463 1462 1461
1402 1412 1420 1424 1425 1433 1436 1445 1452 1455 1457 1455 1452 1457 1433 1428 1421 1410 1409 1408 1409 1406 1406 1407 1409 1413 1418 1426 1433 1440 1445 1450 1454 1458 1461 1464 1465 1465 1463 1463 1462 1461 1461 1461
1405 1407 1411 1405 1421 1427 1437 1444 1449 1451 1453 1458 1446 1452 1432 1421 1408 1404 1401 1400 1401 1402 1402 1404 1408 1413 1419 1427 1434 1440 1445 1450 1453 1457 1460 1462 1463 1462 1462 1461 1460 1459 1459 1460
1408 1406 1403 1406 1417 1425 1435 1444 1455 1460 1459 1448 1428 1440 1419 1402 1399 1400 1397 1396 1400 1401 1401 1403 1407 1412 1420 1428 1434 1439 1444 1449 1453 1456 1459 1461 1461 1460 1460 1459 1458 1457 1457 1459
1404 1409 1396 1395 1399 1411 1423 1428 1435 1452 1444 1431 1428 1434 1410 1393 1390 1392 1393 1394 1398 1399 1402 1405 1411 1415 1422 1429 1434 1439 1444 1448 1452 1455 1458 1459 1459 1459 1459 1458 1456 1456 1456 1458
1394 1392 1383 1390 1395 1400 1415 1421 1416 1428 1433 1429 1423 1414 1398 1390 1388 1387 1388 1392 1396 1398 1402 1406 1413 1418 1424 1429 1434 1439 1444 1448 1451 1454 1456 1458 1459 1459 1458 1457 1455 1455 1457 1458
1402 1392 1379 1385 1392 1394 1397 1409 1430 1427 1442 1442 1418 1416 1402 1387 1385 1383 1385 1390 1394 1397 1401 1407 1414 1420 1425 1431 1436 1440 1444 1447 1450 1453 1455 1457 1458 1458 1458 1457 1456 1456 1457 1459
1407 1396 1379 1382 1378 1382 1400 1403 1407 1414 1419 1425 1425 1405 1385 1379 1379 1379 1382 1385 1391 1397 1402 1409 1415 1421 1427 1432 1436 1439 1443 1446 1450 1453 1455 1457 1457 1458 1457 1457 1457 1457 1458 1460
1415 1403 1384 1371 1370 1375 1381 1387 1398 1407 1425 1410 1413 1402 1381 1381 1378 1381 1381 1383 1389 1399 1404 1410 1417 1421 1426 1431 1436 1439 1443 1446 1450 1452 1455 1456 1457 1457 1457 1456 1457 1457 1459 1461
1421 1401 1385 1378 1380 1377 1379 1383 1389 1396 1402 1411 1418 1400 1378 1379 1379 1381 1383 1384 1390 1398 1403 1410 1416 1420 1425 1430 1435 1439 1443 1446 1450 1452 1454 1456 1456 1457 1456 1456 1457 1457 1459 1462
1423 1410 1390 1370 1372 1374 1380 1383 1388 1393 1399 1401 1399 1391 1377 1375 1378 1381 1385 1388 1392 1397 1401 1407 1414 1420 1425 1429 1434 1438 1442 1446 1449 1452 1454 1456 1456 1456 1456 1457 1458 1459 1460 1462
1419 1409 1404 1393 1392 1388 1374 1381 1385 1390 1389 1396 1392 1391 1382 1376 1378 1381 1385 1390 1395 1396 1400 1406 1412 1418 1423 1428 1433 1437 1441 1445 1449 1452 1454 1456 1456 1456 1457 1458 1459 1461 1462 1464
1415 1407 1406 1392 1385 1387 1385 1380 1378 1383 1386 1388 1390 1384 1377 1376 1375 1381 1383 1387 1393 1393 1398 1404 1411 1417 1420 1426 1431 1435 1440 1444 1448 1452 1454 1456 1457 1457 1458 1460 1462 1464 1465 1466
1414 1411 1407 1389 1386 1384 1385 1375 1378 1379 1380 1384 1387 1369 1379 1377 1375 1379 1381 1382 1387 1388 1392 1398 1405 1412 1417 1424 1429 1433 1439 1443 1447 1451 1454 1456 1458 1458 1460 1462 1464 1466 1467 1469
1415 1416 1409 1392 1386 1385 1377 1382 1374 1374 1392 1395 1387 1383 1391 1388 1380 1379 1379 1380 1382 1386 1389 1397 1403 1409 1415 1422 1427 1433 1437 1442 1446 1450 1453 1456 1459 1460 1462 1464 1466 1467 1469 1470
1415 1417 1406 1392 1381 1375 1382 1389 1392 1379 1399 1401 1399 1394 1390 1387 1380 1370 1375 1375 1380 1375 1382 1390 1398 1406 1413 1419 1425 1430 1435 1440 1445 1448 1452 1456 1459 1462 1464 1466 1467 1468 1470 1472
1414 1414 1411 1397 1383 1368 1395 1393 1391 1390 1393 1401 1400 1396 1393 1388 1374 1364 1375 1377 1380 1385 1381 1387 1396 1404 1411 1417 1422 1427 1433 1438 1442 1447 1451 1455 1458 1461 1465 1467 1469 1470 1471 1473
1405 1407 1407 1395 1390 1395 1397 1388 1386 1386 1399 1401 1398 1395 1393 1390 1383 1376 1375 1374 1377 1381 1385 1386 1393 1399 1406 1413 1419 1424 1429 1434 1440 1445 1450 1453 1457 1461 1464 1467 1470 1471 1472 1473
1403 1400 1402 1393 1391 1397 1400 1392 1394 1406 1403 1401 1398 1394 1391 1387 1381 1377 1374 1373 1374 1375 1378 1383 1389 1396 1403 1409 1415 1421 1425 1432 1438 1443 1447 1451 1456 1460 1463 1466 1469 1471 1473 1475
1408 1412 1406 1407 1404 1407 1406 1405 1405 1404 1402 1399 1397 1392 1389 1383 1378 1374 1370 1368 1369 1371 1376 1382 1384 1392 1400 1405 1411 1416 1422 1429 1434 1440 1445 1449 1453 1458 1462 1465 1467 1470 1473 1475
1413 1412 1410 1407 1409 1406 1405 1405 1403 1402 1400 1397 1394 1390 1386 1381 1376 1372 1369 1365 1365 1368 1370 1377 1385 1387 1394 1400 1407 1413 1420 1426 1431 1437 1442 1446 1451 1455 1459 1463 1466 1469 1471 1474
1414 1412 1412 1410 1408 1404 1401 1404 1403 1401 1399 1394 1391 1387 1384 1378 1373 1369 1365 1363 1361 1364 1367 1372 1377 1382 1388 1395 1402 1410 1416 1422 1427 1433 1439 1443 1448 1452 1456 1460 1464 1467 1470 1472
1420 1418 1415 1414 1414 1412 1408 1406 1404 1401 1396 1393 1388 1383 1380 1377 1370 1365 1361 1359 1357 1360 1362 1367 1374 1381 1386 1392 1398 1404 1412 1417 1423 1428 1433 1438 1443 1447 1452 1456 1460 1464 1467 1470